(204527) = 2000 DU83 = 2005 EH86

Discovered at Socorro on 2005-03-04 by LINEAR.

Orbit

Orbit type: Main Belt

Note: WebGL enabled browser required.

epoch2024-03-31.0
epoch JD2460400.5
perihelion date2019-10-07.57469
perihelion JD2458764.07469
argument of perihelion (°)131.26333
ascending node (°)81.74795
inclination (°)4.98959
eccentricity0.0412695
perihelion distance (AU)2.6927492
Tisserand w.r.t. Jupiter3.3
ΔV w.r.t. Earth (km/sec)10.3
semimajor axis (AU)2.8086613
mean anomaly (°)342.65037
mean daily motion (°/day)0.20938960
aphelion distance (AU)2.925
period (years)4.71
P-vector [x]-0.83574435
P-vector [y]-0.52622886
P-vector [z]-0.15689032
Q-vector [x]0.54233071
Q-vector [y]-0.74622057
Q-vector [z]-0.38604697
absolute magnitude15.82
phase slope0.15
uncertainty0
referenceE2024-GJ9
observations used512
oppositions17
arc length (days)8810
first opposition used2000
last opposition used2024
residual rms (arc-secs)0.71
perturbers coarse indicatorM-v
perturbers precise indicator003Ek
first observation date used2000-02-28.0
last observation date used2024-04-12.0
computer nameMPCLINUX
JD of orbit computation2456819.481888
perihelion JD uncertainty (days)3.0629E-04
argument of perihelion uncertainty (°)8.2199E-05
ascending node uncertainty (°)5.2521E-05
inclination uncertainty (°)4.0815E-06
eccentricity uncertainty 5.0446E-08
perihelion distance uncertainty (AU)1.4752E-07
Minimum Orbit Intersection Distances (in AU)
for orbit epoch: 2460400.5, reference: E2024-GJ9
Mercury2.24224
Venus1.97037
Earth1.68839
Mars1.06608
Jupiter2.04084
Saturn6.16348
Uranus15.7124
Neptune26.9002

Observations

501 total observations over interval: 2000 02 28.30764 – 2024 03 18.472953
These data are available for download (format description).

Date (UT) J2000 RA J2000 Dec Magn Location Ref
2000 02 28.30764 09 57 26.85 +20 03 09.1 18.6   704 – Lincoln Laboratory ETS, New Mexico MPS 11293
2000 02 28.32096 09 57 26.14 +20 03 12.2 19.4   704 – Lincoln Laboratory ETS, New Mexico MPS 11293
2000 02 28.33429 09 57 25.48 +20 03 16.2 18.6   704 – Lincoln Laboratory ETS, New Mexico MPS 11293
2000 02 28.36095 09 57 24.09 +20 03 22.6 19.4   704 – Lincoln Laboratory ETS, New Mexico MPS 11293
2000 03 04.30370 09 53 24.92 +20 22 36.3 19.3   704 – Lincoln Laboratory ETS, New Mexico MPS 11293
2000 03 04.31695 09 53 24.34 +20 22 40.2 19.5   704 – Lincoln Laboratory ETS, New Mexico MPS 11293
2000 03 04.33019 09 53 23.68 +20 22 42.0 19.5   704 – Lincoln Laboratory ETS, New Mexico MPS 11293
2000 03 04.34343 09 53 22.95 +20 22 45.7 19.3   704 – Lincoln Laboratory ETS, New Mexico MPS 11293
2000 03 04.35667 09 53 22.36 +20 22 49.1 19.5   704 – Lincoln Laboratory ETS, New Mexico MPS 11293
2003 11 21.32793 05 35 54.35 +22 32 13.6 19.5   704 – Lincoln Laboratory ETS, New Mexico MPS 130071
2003 11 21.34099 05 35 53.82 +22 32 14.9 20.4   704 – Lincoln Laboratory ETS, New Mexico MPS 130071
2003 11 21.35381 05 35 53.15 +22 32 15.6 20.0   704 – Lincoln Laboratory ETS, New Mexico MPS 130071
2003 11 21.37946 05 35 51.99 +22 32 17.7 19.9   704 – Lincoln Laboratory ETS, New Mexico MPS 130071
2003 12 21.28769 05 08 09.78 +22 52 25.2 19.6   704 – Lincoln Laboratory ETS, New Mexico MPS 130071
2003 12 21.30081 05 08 08.97 +22 52 25.4 19.7   704 – Lincoln Laboratory ETS, New Mexico MPS 130071
2003 12 21.31414 05 08 08.23 +22 52 26.9 19.9   704 – Lincoln Laboratory ETS, New Mexico MPS 130071
2003 12 21.32753 05 08 07.42 +22 52 26.9 19.7   704 – Lincoln Laboratory ETS, New Mexico MPS 130071
2005 03 04.36344 12 14 49.89 +06 49 18.6 19.5   704 – Lincoln Laboratory ETS, New Mexico MPS 128160
2005 03 04.37488 12 14 49.40 +06 49 22.5 20.0   704 – Lincoln Laboratory ETS, New Mexico MPS 128160
2005 03 04.39901 12 14 48.34 +06 49 31.4 19.7   704 – Lincoln Laboratory ETS, New Mexico MPS 128160
2005 03 09.34769 12 11 13.33 +07 17 26.1 19.1   704 – Lincoln Laboratory ETS, New Mexico MPS 128160
2005 03 09.35986 12 11 12.73 +07 17 29.6 19.7   704 – Lincoln Laboratory ETS, New Mexico MPS 128160
2005 03 09.37142 12 11 12.22 +07 17 34.8 19.4   704 – Lincoln Laboratory ETS, New Mexico MPS 128160
2005 03 09.38302 12 11 11.68 +07 17 37.5 19.8   704 – Lincoln Laboratory ETS, New Mexico MPS 128160
2005 03 09.39461 12 11 11.15 +07 17 41.1 20.0   704 – Lincoln Laboratory ETS, New Mexico MPS 128160
2005 03 10.32311 12 10 28.75 +07 22 56.6 19.2 R 699 – Lowell Observatory-LONEOS MPS 128160
2005 03 10.34258 12 10 27.74 +07 23 05.3   699 – Lowell Observatory-LONEOS MPS 128160
2005 03 10.36203 12 10 26.92 +07 23 09.8   699 – Lowell Observatory-LONEOS MPS 128160
2005 03 10.38151 12 10 25.98 +07 23 15.6   699 – Lowell Observatory-LONEOS MPS 128160
2005 03 12.33407 12 08 54.81 +07 34 12.2 19.7   704 – Lincoln Laboratory ETS, New Mexico MPS 129203
2005 03 12.34626 12 08 54.24 +07 34 17.0 19.8   704 – Lincoln Laboratory ETS, New Mexico MPS 129203
2005 03 12.35783 12 08 53.61 +07 34 21.2 19.9   704 – Lincoln Laboratory ETS, New Mexico MPS 129203
2005 03 12.36885 12 08 53.11 +07 34 25.5 20.0   704 – Lincoln Laboratory ETS, New Mexico MPS 129203
2005 03 16.29040 12 05 44.44 +07 55 57.3 18.9   704 – Lincoln Laboratory ETS, New Mexico MPS 129203
2005 03 16.30275 12 05 43.82 +07 56 01.5 19.2   704 – Lincoln Laboratory ETS, New Mexico MPS 129203
2005 03 16.31408 12 05 43.21 +07 56 06.1 19.5   704 – Lincoln Laboratory ETS, New Mexico MPS 129203
2005 03 16.32531 12 05 42.68 +07 56 09.6 19.4   704 – Lincoln Laboratory ETS, New Mexico MPS 129203
2005 03 16.33646 12 05 42.09 +07 56 12.9 19.0   704 – Lincoln Laboratory ETS, New Mexico MPS 129203
2007 09 10.45155 01 37 12.35 +02 55 04.0 20.5 V 691 – Steward Observatory, Kitt Peak-Spacewatch MPS 216229
2007 09 10.46913 01 37 11.85 +02 55 00.3 20.4 V 691 – Steward Observatory, Kitt Peak-Spacewatch MPS 216229
2007 09 10.48180 01 37 11.56 +02 54 57.7 21.3 V 691 – Steward Observatory, Kitt Peak-Spacewatch MPS 216229
2007 09 11.47026 01 36 45.73 +02 51 20.5 19.9 V 691 – Steward Observatory, Kitt Peak-Spacewatch MPS 216229
2007 09 11.49128 01 36 45.22 +02 51 16.0 20.1 V 691 – Steward Observatory, Kitt Peak-Spacewatch MPS 216229
2007 09 11.50888 01 36 44.73 +02 51 12.3 20.6 V 691 – Steward Observatory, Kitt Peak-Spacewatch MPS 216229
2007 10 09.58498 01 17 42.14 +00 48 40.2 19.9 R D29 – Purple Mountain Observatory, XuYi Station MPS 218665
2007 10 09.61263 01 17 40.73 +00 48 33.1 19.7 R D29 – Purple Mountain Observatory, XuYi Station MPS 218665
2007 10 09.63227 01 17 39.74 +00 48 28.2 19.8 R D29 – Purple Mountain Observatory, XuYi Station MPS 218665
2007 10 09.65250 01 17 38.67 +00 48 22.4 19.4 R D29 – Purple Mountain Observatory, XuYi Station MPS 218665
2007 10 09.67070 01 17 37.74 +00 48 17.7 19.7 R D29 – Purple Mountain Observatory, XuYi Station MPS 218665
2007 10 09.68998 01 17 36.76 +00 48 12.3 19.7 R D29 – Purple Mountain Observatory, XuYi Station MPS 218665
2007 10 09.70821 01 17 35.79 +00 48 07.5 19.7 R D29 – Purple Mountain Observatory, XuYi Station MPS 218665
2007 10 09.73546 01 17 34.45 +00 48 00.5 19.8 R D29 – Purple Mountain Observatory, XuYi Station MPS 218665
2007 10 13.20136 01 14 41.92 +00 33 04.1 19.3   704 – Lincoln Laboratory ETS, New Mexico MPS 220538
2007 10 13.21253 01 14 41.37 +00 33 01.0 19.7   704 – Lincoln Laboratory ETS, New Mexico MPS 220538
2007 10 13.22369 01 14 40.85 +00 32 58.7 19.2   704 – Lincoln Laboratory ETS, New Mexico MPS 220538
2007 10 13.23482 01 14 40.29 +00 32 55.7 20.0   704 – Lincoln Laboratory ETS, New Mexico MPS 220538
2007 10 13.24596 01 14 39.69 +00 32 52.1 19.7   704 – Lincoln Laboratory ETS, New Mexico MPS 220538
2007 10 21.23165 01 08 06.57 +00 01 50.9 20.1 V G96 – Mt. Lemmon Survey MPS 222523
2007 10 21.23682 01 08 06.32 +00 01 49.4 20.1 V G96 – Mt. Lemmon Survey MPS 222523
2007 10 21.24203 01 08 06.03 +00 01 48.4 20.0 V G96 – Mt. Lemmon Survey MPS 222523
2007 10 21.24723 01 08 05.78 +00 01 47.1 20.2 V G96 – Mt. Lemmon Survey MPS 222523
2008 11 09.37392 07 42 01.40 +22 46 56.4 20.8 V G96 – Mt. Lemmon Survey MPS 264607
2008 11 09.38360 07 42 01.51 +22 46 56.8 20.9 V G96 – Mt. Lemmon Survey MPS 264607
2008 11 09.39332 07 42 01.69 +22 46 57.7 20.5 V G96 – Mt. Lemmon Survey MPS 264607
2008 11 09.40308 07 42 01.83 +22 46 58.2 20.8 V G96 – Mt. Lemmon Survey MPS 264607
2008 12 22.24971 07 29 38.32 +24 38 52.4 19.4 V 691 – Steward Observatory, Kitt Peak-Spacewatch MPS 269264
2008 12 22.26530 07 29 37.49 +24 38 56.0 19.6 V 691 – Steward Observatory, Kitt Peak-Spacewatch MPS 269264
2008 12 22.28090 07 29 36.71 +24 38 59.4 19.5 V 691 – Steward Observatory, Kitt Peak-Spacewatch MPS 269264
2008 12 30.23986 07 22 34.19 +25 07 54.3 19.6 V 691 – Steward Observatory, Kitt Peak-Spacewatch MPS 270148
2008 12 30.25823 07 22 33.14 +25 07 58.9 20.7 V 691 – Steward Observatory, Kitt Peak-Spacewatch MPS 270148
2008 12 30.27635 07 22 32.08 +25 08 02.5 19.4 V 691 – Steward Observatory, Kitt Peak-Spacewatch MPS 270148
2008 12 30.28246 07 22 31.88 +25 08 04.9 19.6   704 – Lincoln Laboratory ETS, New Mexico MPS 270148
2008 12 30.30808 07 22 30.26 +25 08 09.7 19.5   704 – Lincoln Laboratory ETS, New Mexico MPS 270148
2008 12 30.32088 07 22 29.62 +25 08 11.9 19.5   704 – Lincoln Laboratory ETS, New Mexico MPS 270148
2008 12 30.61540 07 22 13.00 +25 09 14.9 19.4 R D29 – Purple Mountain Observatory, XuYi Station MPS 270148
2008 12 30.63273 07 22 12.05 +25 09 18.3 19.1 R D29 – Purple Mountain Observatory, XuYi Station MPS 270148
2008 12 30.65001 07 22 10.99 +25 09 22.4 19.2 R D29 – Purple Mountain Observatory, XuYi Station MPS 270148
2008 12 30.66721 07 22 09.98 +25 09 25.6 19.2 R D29 – Purple Mountain Observatory, XuYi Station MPS 270148
2008 12 31.23603 07 21 37.77 +25 11 27.3 19.4 V 691 – Steward Observatory, Kitt Peak-Spacewatch MPS 270148
2008 12 31.25417 07 21 36.70 +25 11 31.3 19.4 V 691 – Steward Observatory, Kitt Peak-Spacewatch MPS 270148
2008 12 31.27230 07 21 35.63 +25 11 35.3 19.3 V 691 – Steward Observatory, Kitt Peak-Spacewatch MPS 270148
2009 01 01.23558 07 20 40.59 +25 14 58.7 19.7 V 691 – Steward Observatory, Kitt Peak-Spacewatch MPS 270148
